Hourly Data Report for September 20, 2017

All times are specified in Local Standard Time (LST). Add 1 hour to adjust for Daylight Saving Time where and when it is observed.

IQALUIT CLIMATE
NUNAVUT

63°44'50.000" N
68°32'40.000" W
33.50 m
2402592
71321
XFB

Download Data

Hourly Data (September 2017)
Hourly Data Report for September 20, 2017
Temp Definition
°C
Dew Point Temp Definition
°C
Rel Hum Definition
%
Wind Dir Definition
10's deg

Wind Spd Definition
km/h
Visibility Definition
km
Stn Press Definition
kPa
Hmdx Definition


Wind Chill Definition


Weather Definition


TIME
00:00 1.2 0.3 93 34 4   101.03     LegendNANA
01:00 0.2 -0.6 94 33 8   101.05     LegendNANA
02:00 -0.1 -0.7 95 33 8   101.08   -3 LegendNANA
03:00 0.5 -0.3 95 33 8   101.12     LegendNANA
04:00 0.3 -0.4 95 34 6   101.16     LegendNANA
05:00 0.0 -0.7 95 33 10   101.22   -3 LegendNANA
06:00 -0.3 -0.7 97 33 7   101.28   -3 LegendNANA
07:00 -0.8 -1.1 98 32 6   101.36   -3 LegendNANA
08:00 -0.2 -0.5 98 33 1   101.40   -1 LegendNANA
09:00 0.4 -0.7 93 15 2   101.42     LegendNANA
10:00 3.0 0.6 84 14 4   101.47     LegendNANA
11:00 3.4 0.7 82 13 4   101.49     LegendNANA
12:00 5.4 1.7 77 13 4   101.53     LegendNANA
13:00 6.2 1.4 71 20 5   101.60     LegendNANA
14:00 6.2 1.6 73 12 5   101.66     LegendNANA
15:00 6.3 1.1 69 15 5   101.74     LegendNANA
16:00 5.3 0.9 73 14 6   101.76     LegendNANA
17:00 4.1 0.4 77 14 6   101.76     LegendNANA
18:00 2.6 0.6 87 16 2   101.82     LegendNANA
19:00 2.1 0.5 89 7 3   101.85     LegendNANA
20:00 2.3 -0.4 82 10 5   101.91     LegendNANA
21:00 2.2 -0.3 84 16 6   101.92     LegendNANA
22:00 -0.3 -1.3 93 5 4   101.92   -2 LegendNANA
23:00 0.5 -0.7 92 33 5   101.94     LegendNANA

Notes on Data Quality.

Legend

  • E = Estimated
  • M = Missing
  • NA = Not Available
  • ‡ = Partner data that is not subject to review by the National Climate Archives
Date modified: